BAW29 EBBR-EDDH

Flight info

Callsign BAW29
Flight time 0h 55m
Altitude 37000
Route EBBR/25R NIK L191 VICOT N873 ANDIK M105 RIBSO RIBSO7A
Aircraft B738/M-SDE2E3FGHIRWXY/LB1

Departure

Time 2026-05-07 22:11
Airport Brussels Airport (EBBR)

Arrival

Time 2026-05-07 23:06
Airport Hamburg Helmut Schmidt Airport (EDDH)
Time Latitude Longitude Altitude Speed Heading
2026-05-07 21:57 50.91211 4.48909 112 ft 0 kts 330°
2026-05-07 21:59 50.91207 4.48913 112 ft 0 kts 330°
2026-05-07 22:00 50.91201 4.48918 111 ft 4 kts 333°
2026-05-07 22:00 50.91178 4.48935 112 ft 3 kts 333°
2026-05-07 22:00 50.91167 4.48945 111 ft 2 kts 331°
2026-05-07 22:01 50.91161 4.48949 112 ft 0 kts 330°
2026-05-07 22:03 50.91162 4.48949 112 ft 0 kts 333°
2026-05-07 22:03 50.91163 4.48950 112 ft 0 kts 347°
2026-05-07 22:04 50.91164 4.48951 112 ft 0 kts
2026-05-07 22:04 50.91165 4.48953 112 ft 0 kts 18°
2026-05-07 22:04 50.91165 4.48954 112 ft 0 kts 30°
2026-05-07 22:04 50.91168 4.48960 113 ft 2 kts 43°
2026-05-07 22:05 50.91181 4.48988 114 ft 5 kts 56°
2026-05-07 22:05 50.91204 4.49045 114 ft 8 kts 60°
2026-05-07 22:05 50.91240 4.49144 112 ft 13 kts 58°
2026-05-07 22:05 50.91289 4.49269 112 ft 13 kts 59°
2026-05-07 22:06 50.91334 4.49392 112 ft 13 kts 58°
2026-05-07 22:06 50.91375 4.49515 111 ft 12 kts 66°
2026-05-07 22:06 50.91408 4.49640 110 ft 12 kts 67°
2026-05-07 22:06 50.91444 4.49758 111 ft 12 kts 63°
2026-05-07 22:07 50.91457 4.49883 111 ft 12 kts 97°
2026-05-07 22:07 50.91436 4.49936 109 ft 0 kts 142°
2026-05-07 22:08 50.91428 4.49945 110 ft 2 kts 144°
2026-05-07 22:09 50.91414 4.49960 109 ft 3 kts 148°
2026-05-07 22:09 50.91393 4.49980 109 ft 4 kts 149°
2026-05-07 22:09 50.91360 4.50006 109 ft 6 kts 153°
2026-05-07 22:09 50.91315 4.50043 107 ft 9 kts 153°
2026-05-07 22:10 50.91250 4.50089 105 ft 12 kts 160°
2026-05-07 22:10 50.91178 4.50055 105 ft 11 kts 232°
2026-05-07 22:10 50.91144 4.49910 104 ft 25 kts 249°
2026-05-07 22:10 50.90969 4.49291 110 ft 103 kts 246°
2026-05-07 22:11 50.90598 4.48019 141 ft 170 kts 245°
2026-05-07 22:11 50.90078 4.46168 874 ft 186 kts 247°
2026-05-07 22:11 50.89660 4.44303 2189 ft 181 kts 264°
2026-05-07 22:11 50.89991 4.42299 2816 ft 204 kts 307°
2026-05-07 22:12 50.91197 4.40869 3080 ft 234 kts 332°
2026-05-07 22:12 50.92728 4.39606 3505 ft 257 kts 332°
2026-05-07 22:12 50.94338 4.38271 4362 ft 263 kts 332°
2026-05-07 22:12 50.95963 4.36894 5297 ft 266 kts 331°
2026-05-07 22:13 50.97595 4.35480 6199 ft 270 kts 330°
2026-05-07 22:13 50.98683 4.34525 6786 ft 272 kts 330°
2026-05-07 22:13 51.00893 4.32562 7969 ft 277 kts 330°
2026-05-07 22:13 51.02580 4.31048 8807 ft 280 kts 330°
2026-05-07 22:14 51.04287 4.29510 9645 ft 284 kts 330°
2026-05-07 22:14 51.06019 4.27942 10406 ft 291 kts 330°
2026-05-07 22:14 51.07854 4.26276 10651 ft 317 kts 330°
2026-05-07 22:14 51.09844 4.24467 10861 ft 341 kts 330°
2026-05-07 22:15 51.11971 4.22532 11170 ft 360 kts 330°
2026-05-07 22:15 51.14166 4.20533 11799 ft 367 kts 330°
2026-05-07 22:15 51.15671 4.19160 12309 ft 369 kts 330°
2026-05-07 22:15 51.17836 4.17047 13059 ft 372 kts 325°
2026-05-07 22:16 51.19950 4.14549 13780 ft 375 kts 322°
2026-05-07 22:16 51.22032 4.11999 14463 ft 379 kts 322°
2026-05-07 22:16 51.24152 4.09450 15130 ft 383 kts 323°
2026-05-07 22:16 51.26408 4.07162 15775 ft 388 kts 334°
2026-05-07 22:17 51.28963 4.05735 16418 ft 391 kts 347°
2026-05-07 22:17 51.31671 4.05225 17045 ft 395 kts 358°
2026-05-07 22:17 51.34432 4.05210 17650 ft 399 kts
2026-05-07 22:17 51.37182 4.05247 18216 ft 402 kts
2026-05-07 22:18 51.39990 4.05250 18783 ft 406 kts 359°
2026-05-07 22:18 51.45687 4.05205 19889 ft 413 kts
2026-05-07 22:18 51.48548 4.05829 20405 ft 417 kts 12°
2026-05-07 22:19 51.51320 4.07225 20915 ft 420 kts 22°
2026-05-07 22:19 51.53984 4.09172 21412 ft 423 kts 25°
2026-05-07 22:19 51.56650 4.11224 21891 ft 426 kts 25°
2026-05-07 22:19 51.59328 4.13291 22347 ft 429 kts 25°
2026-05-07 22:20 51.62037 4.15358 22796 ft 432 kts 25°
2026-05-07 22:20 51.64767 4.17416 23237 ft 435 kts 25°
2026-05-07 22:20 51.67522 4.19478 23665 ft 438 kts 25°
2026-05-07 22:20 51.70294 4.21548 24082 ft 441 kts 25°
2026-05-07 22:21 51.73084 4.23635 24475 ft 443 kts 25°
2026-05-07 22:21 51.75890 4.25738 24864 ft 446 kts 25°
2026-05-07 22:21 51.78708 4.27851 25237 ft 448 kts 25°
2026-05-07 22:21 51.81550 4.29985 25600 ft 451 kts 25°
2026-05-07 22:22 51.84408 4.32134 25952 ft 453 kts 25°
2026-05-07 22:22 51.87271 4.34289 26293 ft 456 kts 25°
2026-05-07 22:22 51.90145 4.36457 26626 ft 458 kts 25°
2026-05-07 22:22 51.93036 4.38641 26942 ft 460 kts 25°
2026-05-07 22:23 51.95952 4.40846 27254 ft 462 kts 25°
2026-05-07 22:23 51.98874 4.43060 27556 ft 465 kts 25°
2026-05-07 22:23 52.01700 4.45203 27838 ft 467 kts 25°
2026-05-07 22:23 52.04646 4.47442 28120 ft 469 kts 25°
2026-05-07 22:24 52.07606 4.49694 28393 ft 471 kts 25°
2026-05-07 22:24 52.10531 4.51922 28676 ft 472 kts 25°
2026-05-07 22:24 52.13540 4.54219 29049 ft 471 kts 25°
2026-05-07 22:24 52.16504 4.56485 29484 ft 469 kts 25°
2026-05-07 22:25 52.19451 4.58740 29880 ft 468 kts 25°
2026-05-07 22:25 52.22396 4.60996 30222 ft 467 kts 25°
2026-05-07 22:25 52.25335 4.63251 30551 ft 467 kts 25°
2026-05-07 22:25 52.28240 4.65481 30884 ft 466 kts 25°
2026-05-07 22:26 52.31206 4.67761 31252 ft 465 kts 25°
2026-05-07 22:26 52.34099 4.69988 31590 ft 465 kts 25°
2026-05-07 22:26 52.37011 4.72233 31896 ft 464 kts 25°
2026-05-07 22:26 52.39969 4.74516 32222 ft 464 kts 25°
2026-05-07 22:27 52.42848 4.76743 32533 ft 463 kts 25°
2026-05-07 22:27 52.45788 4.79020 32851 ft 462 kts 25°
2026-05-07 22:27 52.48664 4.81250 33138 ft 462 kts 25°
2026-05-07 22:27 52.51527 4.83624 33422 ft 461 kts 31°
2026-05-07 22:28 52.54143 4.86642 33701 ft 461 kts 39°
2026-05-07 22:28 52.56498 4.90320 33992 ft 460 kts 49°
2026-05-07 22:28 52.58477 4.94361 34264 ft 460 kts 52°
2026-05-07 22:28 52.60420 4.98541 34519 ft 460 kts 52°
2026-05-07 22:29 52.62357 5.02722 34772 ft 459 kts 52°
2026-05-07 22:29 52.64309 5.06882 35042 ft 459 kts 52°
2026-05-07 22:29 52.66272 5.11010 35305 ft 458 kts 52°
2026-05-07 22:29 52.68241 5.15132 35546 ft 457 kts 51°
2026-05-07 22:30 52.70210 5.19254 35785 ft 457 kts 51°
2026-05-07 22:30 52.72171 5.23370 36023 ft 456 kts 53°
2026-05-07 22:30 52.73921 5.27732 36233 ft 456 kts 61°
2026-05-07 22:30 52.75232 5.32492 36423 ft 457 kts 70°
2026-05-07 22:31 52.76303 5.37430 36622 ft 457 kts 71°
2026-05-07 22:31 52.77339 5.42394 36806 ft 457 kts 71°
2026-05-07 22:31 52.78365 5.47352 36966 ft 458 kts 71°
2026-05-07 22:32 52.80461 5.57364 36995 ft 462 kts 71°
2026-05-07 22:32 52.82576 5.67329 36996 ft 459 kts 70°
2026-05-07 22:33 52.84687 5.77250 36999 ft 456 kts 70°
2026-05-07 22:33 52.86777 5.87113 37001 ft 454 kts 70°
2026-05-07 22:34 52.88860 5.96999 37002 ft 453 kts 71°
2026-05-07 22:34 52.90927 6.06863 37003 ft 453 kts 71°
2026-05-07 22:35 52.92988 6.16749 37003 ft 454 kts 71°
2026-05-07 22:35 52.95047 6.26673 37003 ft 456 kts 71°
2026-05-07 22:36 52.97103 6.36631 37003 ft 457 kts 71°
2026-05-07 22:36 52.99160 6.46643 37002 ft 459 kts 71°
2026-05-07 22:37 53.01214 6.56693 37002 ft 460 kts 71°
2026-05-07 22:37 53.03263 6.66769 37002 ft 461 kts 71°
2026-05-07 22:38 53.05307 6.76871 37001 ft 462 kts 71°
2026-05-07 22:38 53.07344 6.86989 37001 ft 461 kts 71°
2026-05-07 22:39 53.09372 6.97119 37000 ft 461 kts 71°
2026-05-07 22:39 53.11376 7.07178 37000 ft 461 kts 71°
2026-05-07 22:40 53.13385 7.17306 37000 ft 460 kts 71°
2026-05-07 22:40 53.15365 7.27445 37000 ft 460 kts 72°
2026-05-07 22:41 53.17325 7.37565 37001 ft 459 kts 72°
2026-05-07 22:41 53.19298 7.47702 36671 ft 464 kts 72°
2026-05-07 22:41 53.20292 7.52812 36157 ft 463 kts 72°
2026-05-07 22:42 53.21279 7.57907 35518 ft 461 kts 72°
2026-05-07 22:42 53.22264 7.63008 34836 ft 462 kts 72°
2026-05-07 22:42 53.23240 7.68055 34145 ft 463 kts 72°
2026-05-07 22:42 53.24241 7.73239 33420 ft 463 kts 72°
2026-05-07 22:43 53.25227 7.78357 32676 ft 464 kts 72°
2026-05-07 22:43 53.26214 7.83498 31910 ft 465 kts 72°
2026-05-07 22:43 53.27201 7.88647 31125 ft 466 kts 72°
2026-05-07 22:43 53.28182 7.93784 30316 ft 468 kts 72°
2026-05-07 22:44 53.29176 7.99004 29458 ft 469 kts 72°
2026-05-07 22:44 53.30163 8.04203 28556 ft 470 kts 72°
2026-05-07 22:44 53.31149 8.09404 27884 ft 466 kts 72°
2026-05-07 22:44 53.32120 8.14540 27240 ft 461 kts 72°
2026-05-07 22:45 53.33120 8.19611 26593 ft 456 kts 70°
2026-05-07 22:45 53.34232 8.24554 25960 ft 452 kts 68°
2026-05-07 22:45 53.35382 8.29410 25330 ft 447 kts 68°
2026-05-07 22:45 53.36523 8.34204 24713 ft 442 kts 68°
2026-05-07 22:46 53.37643 8.38986 24094 ft 438 kts 69°
2026-05-07 22:46 53.38733 8.43711 23482 ft 434 kts 69°
2026-05-07 22:46 53.39808 8.48417 22870 ft 430 kts 69°
2026-05-07 22:46 53.40906 8.53054 22262 ft 426 kts 67°
2026-05-07 22:47 53.42094 8.57570 21659 ft 422 kts 65°
2026-05-07 22:47 53.43314 8.62021 21057 ft 418 kts 65°
2026-05-07 22:47 53.44528 8.66423 20462 ft 414 kts 65°
2026-05-07 22:47 53.45721 8.70790 19867 ft 409 kts 65°
2026-05-07 22:48 53.46881 8.75084 19279 ft 399 kts 65°
2026-05-07 22:48 53.48007 8.79283 18701 ft 390 kts 65°
2026-05-07 22:48 53.49099 8.83381 18149 ft 380 kts 66°
2026-05-07 22:48 53.50165 8.87382 17607 ft 370 kts 66°
2026-05-07 22:49 53.51202 8.91287 17079 ft 362 kts 66°
2026-05-07 22:49 53.52216 8.95109 16561 ft 354 kts 66°
2026-05-07 22:49 53.53315 8.98750 16047 ft 347 kts 56°
2026-05-07 22:49 53.54787 9.01901 15549 ft 339 kts 46°
2026-05-07 22:50 53.56531 9.04482 15063 ft 333 kts 36°
2026-05-07 22:50 53.58407 9.06730 14587 ft 327 kts 34°
2026-05-07 22:50 53.60261 9.08896 14107 ft 322 kts 34°
2026-05-07 22:50 53.62084 9.11024 13638 ft 317 kts 34°
2026-05-07 22:51 53.63876 9.13131 13177 ft 312 kts 34°
2026-05-07 22:51 53.65641 9.15219 12719 ft 308 kts 35°
2026-05-07 22:51 53.67380 9.17288 12270 ft 304 kts 35°
2026-05-07 22:51 53.69095 9.19335 11833 ft 302 kts 35°
2026-05-07 22:52 53.70793 9.21367 11380 ft 297 kts 35°
2026-05-07 22:52 53.72462 9.23367 11016 ft 289 kts 35°
2026-05-07 22:52 53.74052 9.25277 10893 ft 274 kts 35°
2026-05-07 22:52 53.75563 9.27090 10757 ft 261 kts 35°
2026-05-07 22:53 53.77028 9.28851 10646 ft 254 kts 35°
2026-05-07 22:53 53.78443 9.30554 10554 ft 254 kts 35°
2026-05-07 22:53 53.79916 9.32327 10471 ft 259 kts 35°
2026-05-07 22:53 53.81365 9.34122 10366 ft 264 kts 41°
2026-05-07 22:54 53.82618 9.36379 10247 ft 263 kts 50°
2026-05-07 22:54 53.83751 9.38793 10127 ft 260 kts 52°
2026-05-07 22:54 53.84858 9.41190 10015 ft 257 kts 51°
2026-05-07 22:54 53.85974 9.43575 9745 ft 258 kts 51°
2026-05-07 22:55 53.87093 9.45929 9491 ft 256 kts 51°
2026-05-07 22:55 53.88217 9.48271 9237 ft 255 kts 50°
2026-05-07 22:55 53.89321 9.50566 9128 ft 248 kts 50°
2026-05-07 22:55 53.90405 9.52817 9016 ft 246 kts 50°
2026-05-07 22:56 53.91504 9.55007 8910 ft 246 kts 41°
2026-05-07 22:56 53.93004 9.56337 8774 ft 248 kts
2026-05-07 22:56 53.94724 9.56110 8532 ft 252 kts 340°
2026-05-07 22:56 53.96350 9.54963 8285 ft 255 kts 341°
2026-05-07 22:57 53.98104 9.54764 7985 ft 255 kts 13°
2026-05-07 22:57 53.99641 9.56187 7715 ft 254 kts 46°
2026-05-07 22:57 54.00657 9.58609 7473 ft 252 kts 60°
2026-05-07 22:57 54.01375 9.61307 7180 ft 252 kts 79°
2026-05-07 22:58 54.01287 9.64227 6932 ft 249 kts 109°
2026-05-07 22:58 54.00393 9.66701 6678 ft 246 kts 136°
2026-05-07 22:58 53.99012 9.68363 6439 ft 244 kts 152°
2026-05-07 22:58 53.97508 9.69698 6180 ft 243 kts 153°
2026-05-07 22:59 53.96001 9.70966 5921 ft 242 kts 154°
2026-05-07 22:59 53.94488 9.72230 5662 ft 242 kts 154°
2026-05-07 22:59 53.92986 9.73505 5406 ft 241 kts 153°
2026-05-07 22:59 53.91482 9.74807 5034 ft 245 kts 153°
2026-05-07 23:00 53.89960 9.76138 4768 ft 246 kts 153°
2026-05-07 23:00 53.88442 9.77470 4491 ft 246 kts 153°
2026-05-07 23:00 53.86932 9.78794 4230 ft 244 kts 153°
2026-05-07 23:00 53.85941 9.79673 4077 ft 240 kts 152°
2026-05-07 23:01 53.84495 9.80990 3879 ft 230 kts 152°
2026-05-07 23:01 53.83124 9.82204 3805 ft 215 kts 153°
2026-05-07 23:01 53.81818 9.83340 3599 ft 209 kts 153°
2026-05-07 23:01 53.80553 9.84434 3355 ft 199 kts 153°
2026-05-07 23:02 53.79351 9.85473 3090 ft 189 kts 153°
2026-05-07 23:02 53.78207 9.86462 2833 ft 180 kts 153°
2026-05-07 23:02 53.77113 9.87408 2608 ft 175 kts 153°
2026-05-07 23:02 53.76030 9.88346 2376 ft 174 kts 153°
2026-05-07 23:03 53.74954 9.89277 2143 ft 172 kts 153°
2026-05-07 23:03 53.73916 9.90175 1905 ft 163 kts 153°
2026-05-07 23:03 53.72928 9.91031 1706 ft 157 kts 153°
2026-05-07 23:03 53.71958 9.91870 1507 ft 158 kts 153°
2026-05-07 23:04 53.70973 9.92723 1301 ft 160 kts 153°
2026-05-07 23:04 53.69987 9.93576 1082 ft 159 kts 153°
2026-05-07 23:04 53.69025 9.94409 885 ft 155 kts 153°
2026-05-07 23:04 53.68167 9.95153 692 ft 153 kts 153°
2026-05-07 23:05 53.67225 9.95969 482 ft 153 kts 153°
2026-05-07 23:05 53.66287 9.96780 289 ft 152 kts 153°
2026-05-07 23:05 53.65344 9.97597 99 ft 151 kts 153°
2026-05-07 23:05 53.64447 9.98369 51 ft 127 kts 150°
2026-05-07 23:06 53.63826 9.98917 48 ft 71 kts 153°
2026-05-07 23:06 53.63486 9.99208 48 ft 6 kts 153°
2026-05-07 23:06 53.63443 9.99245 47 ft 8 kts 153°
2026-05-07 23:06 53.63391 9.99290 49 ft 9 kts 153°
2026-05-07 23:07 53.63328 9.99339 50 ft 10 kts 160°
2026-05-07 23:07 53.63252 9.99356 50 ft 12 kts 183°
2026-05-07 23:07 53.63180 9.99332 48 ft 0 kts 191°
2026-05-07 23:09 53.63168 9.99328 48 ft 4 kts 191°
2026-05-07 23:09 53.63121 9.99313 47 ft 9 kts 192°
2026-05-07 23:10 53.63053 9.99295 47 ft 10 kts 175°
2026-05-07 23:10 53.62979 9.99339 46 ft 13 kts 155°
2026-05-07 23:10 53.62924 9.99383 43 ft 1 kts 161°
2026-05-07 23:10 53.62908 9.99380 45 ft 3 kts 198°
2026-05-07 23:11 53.62887 9.99347 44 ft 5 kts 236°
2026-05-07 23:11 53.62873 9.99308 44 ft 0 kts 240°